{"data":{"norad_id":39430,"epoch":"2026-05-25T04:04:01.100352Z","epoch_age_seconds":74384,"freshness":"FRESH","line1":"1 39430U 13066Q   26145.16945718  .00001614  00000+0  24774-3 0  9992","line2":"2 39430  97.6502 347.0844 0129409 150.8386 210.0128 14.69352090666535","mean_motion":14.6935209,"eccentricity":0.0129409,"inclination_deg":97.6502,"raan_deg":347.0844,"arg_perigee_deg":150.8386,"mean_anomaly_deg":210.0128,"bstar":0.00024774,"rev_number":66653,"period_min":98.002378721903,"perigee_km":572.01679227448,"apogee_km":754.25764332472,"semimajor_km":7041.2742177996,"source":"CELESTRAK","updated_at":"2026-05-25T13:38:25.494064Z"}}